www.pogodaiklimat.ru

Погода и климат >> Архив погоды >> Россия >> Камчатский край >> Петропавловск-Камчатский


АРХИВ ПОГОДЫ в Петропавловск-Камчатском

Время (UTC), дата Ветер
(напр.,м/с)
 
Видим.   Явления Облачность Т
(С)
Тd
(С)
f
(%)
Тe
(С)
Тes
(С)
Комфортность P
(гПа)
Po
(гПа)
Тmin
(С)
Tmax
(С)
R
(мм)
R24
(мм)
S
(см)
00 21.05 З 16-24
{24}
20 км 4/4 600 м
[Sc diur, vesp]
+6.1 -5.7 42 -0 -0 прохладно 997.5 994.6
03 21.05 СЗ 16-21
{26}
50 км 1/1 600 м
[Sc]
+7.1 -5.9 39 +1 +1 прохладно 998.4 995.5
06 21.05 З 13-17
{25}
50 км ясно +8.1 -7.1 33 +3 +3 по сезону 1001.8 998.8
09 21.05 З 5-10
{17}
20 км 3/1 600 м
[Sc Ci fib]
+6.9 -5.1 42 +4 +4 по сезону 1002.9 1000.0 +8.3
12 21.05 С 2
{14}
20 км слабый ливневой дождь 8/8 600 м
[Cb cap]
+4.4 -0.2 72 +2 +2 по сезону 1003.4 1000.4
15 21.05 С 1 20 км {ливн. осадки} 10/8 600 м
[Sc Ac trans]
+5.4 -1.4 62 +5 +5 по сезону 1000.8 997.9
18 21.05 З 2 20 км в посл. час ливневой дождь 10/10 600 м
[Sc diur, vesp]
+3.8 -0.6 73 +1 +1 по сезону 998.2 995.2
21 21.05 З 9-11
{11}
50 км {ливн. осадки} 4/3 1000 м
[Sc Ac trans Cs]
+4.5 -2.5 60 -1 -1 прохладно 997.0 994.1 +3.4
00 22.05 З 9-16
{17}
50 км {ливн. осадки} 4/4 1000 м
[Sc]
+5.4 -6.5 42 0 +1 холодно 997.2 994.2
03 22.05 ЮЗ 3
{17}
4000 м слабый ливневой снег 9/9 600 м
[Cb cap]
+3.5 -0.9 73 -0 +1 холодно 997.8 994.8
06 22.05 З 3 10 км слабый ливневой дождь 10/10 300 м
[Cb cap]
+3.5 -1.5 70 -0 -0 холодно 998.0 995.1
09 22.05 З 2 10 км осадки на расстоянии {ливн. осадки} 10/8 600 м
[Cb cap Ac trans Ci fib]
+3.2 -2.2 68 +1 +1 прохладно 998.6 995.6 +5.5 0.0
12 22.05 СЗ 3 20 км {ливн. осадки} 10/4 600 м
[Sc Ac trans Ci fib]
+2.2 -1.3 78 -2 -2 прохладно 999.4 996.4
15 22.05 С 2 20 км 10/10 600 м
[Sc]
+2.3 -1.6 75 -1 -1 по сезону 999.9 996.9
18 22.05 С 3 20 км в посл. час ливневой дождь 9/9 600 м
[Sc diur, vesp]
+2.2 -1.5 76 -2 -2 прохладно 1000.4 997.4
21 22.05 С 6 50 км 3/1 600 м
[Sc Ac trans]
+4.1 -1.6 66 -1 +1 прохладно 1001.5 998.6 +1.8 0.1
00 23.05 З 4 50 км 3/1 600 м
[Sc Ac trans Ci fib]
+8.5 -2.5 46 +6 +14 по сезону 1002.0 999.1
03 23.05 З 6-11
{11}
50 км 1/1 600 м
[Sc]
+9.0 -2.8 43 +6 +11 по сезону 1002.8 999.9
06 23.05 З 7-11
{13}
50 км 1/1 600 м
[Sc]
+8.9 -2.2 46 +5 +7 по сезону 1004.4 1001.5
09 23.05 З 8-10
{14}
50 км ясно +6.8 -1.5 55 +2 +2 по сезону 1006.9 1003.9 +10.1
12 23.05 С 4
{11}
50 км 3/3 600 м
[Sc]
+5.3 -2.0 59 +2 +2 по сезону 1010.5 1007.6
15 23.05 СЗ 6 50 км 1/1 600 м
[Sc]
+4.8 -1.8 62 0 0 по сезону 1011.9 1008.9
18 23.05 С 6 50 км ясно +3.6 -2.8 63 -2 -1 прохладно 1013.1 1010.1
21 23.05 С 4 50 км ясно +6.0 -2.3 55 +3 +7 по сезону 1014.9 1012.0 +3.5
00 24.05 ЮЗ 3 50 км 1/0
[Ac trans]
+9.1 -1.0 49 +7 +19 опасность
простуды
1015.3 1012.4
03 24.05 ЮЗ 1 50 км 3/1 1000 м
[Sc diur, vesp Ci]
+11.3 -1.1 42 +12 +26 опасность
простуды
1015.2 1012.3
06 24.05 ЮЗ 1 50 км 9/3 1000 м
[Cu Sc Ac trans Cs]
+9.8 -2.0 44 +10 +12 тепло 1015.6 1012.7
09 24.05 ЮВ 3 50 км 9/1 1000 м
[Sc Ac trans Ci fib]
+8.0 -4.7 40 +6 +6 по сезону 1016.2 1013.3 +11.9
12 24.05 штиль 0 50 км 3/3 200 м
[St]
+5.1 -1.7 61 +5 +5 по сезону 1016.5 1013.5
15 24.05 штиль 0 50 км 1/1 100 м
[St]
+2.9 -0.3 79 +2 +2 по сезону 1016.5 1013.4
18 24.05 СЗ 1 50 км туман на расстоянии 1/1 600 м
[Sc]
+1.8 -0.4 85 0 0 по сезону 1016.8 1013.8
21 24.05 СЗ 1 50 км ясно +4.1 -0.8 70 +3 +10 по сезону 1017.5 1014.5 +1.6
00 25.05 Ю 1 50 км 3/0
[Ci fib]
+10.1 +0.2 50 +10 +27 опасность
простуды
1017.3 1014.4
03 25.05 Ю 3 50 км 1/1 1000 м
[Cu hum]
+8.9 +2.0 62 +7 +18 опасность
простуды
1017.4 1014.4
06 25.05 Ю 3 50 км 1/0
[Ci fib]
+8.3 -0.1 55 +6 +11 по сезону 1017.2 1014.3
09 25.05 ЮВ 3 50 км 8/0
[Ci fib]
+8.1 -2.5 47 +6 +6 по сезону 1017.8 1014.9 +10.9
12 25.05 ЮВ 3 50 км 9/1 300 м
[St Ci fib]
+4.5 -0.1 72 +1 +1 по сезону 1019.0 1016.0
15 25.05 штиль 0 20 км 8/5 300 м
[St Ci fib]
+2.7 +0.4 85 +2 +2 по сезону 1019.3 1016.3
18 25.05 штиль 0 10 км туман на расстоянии 10/10 300 м
[St]
+3.1 +0.5 83 +2 +2 по сезону 1018.2 1015.2
21 25.05 З 1 10 км туман на расстоянии 10/10 300 м
[St]
+4.6 +0.8 76 +3 +3 по сезону 1018.1 1015.1 +2.7
00 26.05 Ю 1 50 км 3/1 300 м
[St Ci fib]
+9.3 +2.2 61 +9 +24 опасность
простуды
1016.4 1013.5
03 26.05 Ю 2 50 км 10/1 1000 м
[Sc Ac trans Ci fib]
+8.2 +1.6 63 +7 +13 по сезону 1014.9 1012.0
06 26.05 ЮВ 5 50 км 10/1 600 м
[Sc Ac As]
+4.6 +0.8 76 0 +1 холодно 1014.1 1011.1
09 26.05 Ю 4 20 км 10/8 600 м
[Sc Ac As]
+4.1 +1.5 83 -0 -0 прохладно 1012.8 1009.8 +10.2
12 26.05 В 2 20 км 10/10 300 м
[Sc]
+4.0 +2.0 87 +1 +1 по сезону 1011.6 1008.6
15 26.05 СЗ 2 10 км слабый ливневой дождь 10/10 300 м
[Cb cap]
+3.9 +2.5 91 +1 +1 по сезону 1009.1 1006.2
18 26.05 штиль 0 10 км слабый ливневой дождь 10/10 300 м
[Cb cap]
+4.0 +2.6 91 +3 +3 по сезону 1007.5 1004.6
21 26.05 СЗ 4 10 км {ливн. осадки} 10/8 200 м
[St Ac trans]
+5.4 +3.2 86 +1 +2 прохладно 1005.9 1003.0 +3.7 8
00 27.05 СЗ 3 50 км {ливн. осадки} 6/5 600 м
[Sc Ci fib]
+10.2 +4.4 67 +8 +14 по сезону 1003.7 1000.8
03 27.05 З 8-10
{13}
50 км 3/1 600 м
[Sc Ac trans]
+12.0 +4.0 58 +9 +11 по сезону 1002.5 999.6
06 27.05 З 11-14
{14}
50 км 1/1 600 м
[Sc]
+11.5 +2.9 55 +8 +8 по сезону 1002.6 999.7
09 27.05 СЗ 8-10
{16}
50 км 3/1 600 м
[Sc Ac trans]
+10.4 +2.2 57 +7 +7 по сезону 1003.7 1000.8 +13.1
12 27.05 СЗ 8-10
{10}
50 км 3/1 600 м
[Sc Ci fib]
+9.0 +2.7 65 +5 +5 по сезону 1005.0 1002.1
15 27.05 С 6-10
{11}
50 км 3/0
[Ci fib]
+8.3 +1.5 62 +5 +5 по сезону 1004.8 1001.9
18 27.05 С 8-12
{12}
50 км 4/1 1000 м
[Sc Ac trans Ci fib]
+8.0 +0.6 60 +4 +4 по сезону 1005.1 1002.2

 

Местоположение метеостанции Петропавловск-Камчатский (Камчатский край, Россия): широта 52.87 долгота 158.60 высота над уровнем моря 24 м.

В архиве по умолчанию представлена погода в Петропавловск-Камчатском за последнюю неделю. Архивные данные за месяц целиком и за предыдущие месяцы, начиная с января 2011 года, Вы можете получить, выбрав интересующий диапазон дат из раскрывающегося списка и нажав кнопку "Ввод!".

Внимание! Время в таблицах - всемирное. Для получения местного времени необходимо прибавить поправку, которая в Петропавловск-Камчатском равна 12 ч.

Смотрите также архив погоды в соседних городах и на ближайших метеорологических станциях:

Погода в Петропавловском Маяке (Камчатский край, Россия) (7 км)
Погода в Петропавловск-Камч. 2 (Камчатский край, Россия) (24 км)
Погода в Сосновке (Камчатский край, Россия) (31 км)
Погода в Начиках (Камчатский край, Россия) (66 км)
Погода в Водопадной (Камчатский край, Россия) (124 км)
Погода в Пущино (Камчатский край, Россия) (151 км)
Погода в Большерецке (Камчатский край, Россия) (155 км)
Погода в Семячике (Камчатский край, Россия) (163 км)
Погода в Мильково (Камчатский край, Россия) (201 км)
Погода в Озерной (Камчатский край, Россия) (215 км)

Пояснения к столбцам:

Ветер - указаны скорость ветра в м/с - средняя за 10 мин, порывы в срок и между сроками (в фигурных скобках) и направление, откуда дует ветер: С - северный, СВ - северо-восточный, В - восточный, ЮВ - юго-восточный, Ю - южный, ЮЗ - юго-западный, З - западный, СЗ - северо-западный.
Видимость - горизонтальная дальность видимости в метрах или километрах. При видимости от 1 до 10 км при отсутствии осадков обычно наблюдается дымка, при ухудшении видимости до 1 км и менее - туман. В сухую погоду видимость может ухудшаться дымом, пылью или мглою.
Явления - указаны атмосферные явления, наблюдавшиеся в срок или в последний час перед сроком; фигурными скобками обозначены явления, наблюдавшиеся между сроками (за 1-3 часа до срока); квадратными скобками обозначены град или гололедные отложения с указанием их диаметра в мм.
Облачность - указаны через наклонную черту общая и нижняя облачность в баллах и высота нижней границы облаков в метрах; квадратными скобками обозначены формы облаков: Ci - перистые, Cs - перисто-слоистые, Cc - перисто-кучевые, Ac - высококучевые, As - высокослоистые, Sc - слоисто-кучевые, Ns - слоисто-дождевые, Cu - кучевые, Cb - кучево-дождевые. Подробнее классификацию облаков см. в Атласе облаков (PDF).
T - Температура воздуха - температура, измеренная на высоте 2 м над землей.
Td - Температура точки росы - температура, при понижении до которой содержащийся в воздухе водяной пар достигнет насыщения.
f - Относительная влажность воздуха - влажноcть воздуха, измеренная на высоте 2 м над землей.
Te - Эффективная температура - температура, которую ощущает одетый по сезону человек в тени. Характеристика душности погоды. При расчете учитывается влияние влажности воздуха и скорости ветра на теплоощущения человека.
Tes - Эффективная температура на солнце - температура, которую ощущает человек, с поправкой на солнечный нагрев. Характеристика знойности погоды. Зависит от высоты солнца над горизонтом, облачности и скорости ветра. Ночью, в пасмурную погоду, а также при ветре 12 м/с и более поправка равна нулю.
P - Атмосферное давление - приведенное к уровню моря атмосферное давление.
Po - Атмосферное давление - измеренное на уровне метеостанции атмосферное давление.
Tmin - Минимальная температура - минимум температуры воздуха на высоте 2 м над землей.
Tmax - Максимальная температура - максимум температуры воздуха на высоте 2 м над землей.
R - Количество осадков - Количество выпавших осадков за период времени, мм. При наведении курсора мыши на число - период времени, за который выпало указанное количество осадков.
R24 - Количество осадков - Количество выпавших осадков за 24 часа, мм.
S - Снежный покров - Высота снежного покрова, см. При наведении курсора мыши на число - состояние снежного покрова и степень покрытия местности в баллах.